GW4822 Weather Reports


time (UTC)temp
F
wind
direction
speed
knots
gust
knots
rain 1hr
in
rain 24hr
in
rain mn
in
humidity
%
barometer
mb
20260505102033 40 174 0.0 0.9 0.00 0.00 0.00 99 1005.6
20260505101531 40 171 0.0 1.7 0.00 0.00 0.00 99 1005.8
20260505101027 40 171 0.0 0.0 0.00 0.00 0.00 99 1005.8
20260505100524 40 171 0.0 0.0 0.00 0.00 0.00 99 1005.9
20260505100021 40 171 0.0 0.0 0.00 0.00 0.00 99 1005.7
20260505095517 40 171 0.0 0.0 0.00 0.00 0.00 99 1005.8
20260505095013 40 158 0.0 0.9 0.00 0.00 0.00 99 1005.8
20260505094510 40 198 0.9 1.7 0.00 0.00 0.00 99 1005.8
20260505094006 40 198 0.0 0.0 0.00 0.00 0.00 99 1005.7
20260505093503 40 198 0.0 0.0 0.00 0.00 0.00 99 1005.9
20260505093000 40 203 0.9 1.7 0.00 0.00 0.00 99 1005.8
20260505092458 40 180 0.0 0.9 0.00 0.00 0.00 99 1005.8
20260505091955 40 168 0.0 0.0 0.00 0.00 0.00 99 1005.8
20260505091453 40 158 0.0 0.0 0.00 0.00 0.00 99 1006.1
20260505090951 40 199 0.9 1.7 0.00 0.00 0.00 99 1005.9
20260505090448 41 181 0.0 0.9 0.00 0.00 0.00 99 1006.0
20260505085945 41 146 0.9 0.9 0.00 0.00 0.00 99 1006.0
20260505085443 41 149 0.0 0.9 0.00 0.00 0.00 99 1006.0
20260505084941 41 149 0.0 0.9 0.00 0.00 0.00 99 1006.2
20260505084439 41 110 1.7 1.7 0.00 0.00 0.00 99 1006.0
20260505083937 41 172 0.0 0.9 0.00 0.00 0.00 99 1006.3
20260505083434 40 159 0.9 1.7 0.00 0.00 0.00 99 1006.1
20260505082930 40 112 0.9 1.7 0.00 0.00 0.00 99 1006.0
20260505082426 40 153 0.0 0.9 0.00 0.00 0.00 99 1006.0
20260505081923 40 154 0.0 0.0 0.00 0.00 0.00 99 1006.2
20260505081420 40 124 0.9 1.7 0.00 0.00 0.00 99 1006.4
20260505080916 40 208 1.7 2.6 0.00 0.00 0.00 99 1006.4
20260505080413 40 162 0.0 1.7 0.00 0.00 0.00 99 1006.4
20260505075908 40 237 2.6 5.2 0.00 0.62 0.62 99 1006.2
20260505075405 40 146 0.9 2.6 0.00 0.62 0.62 99 1006.5
20260505074903 40 159 0.0 0.9 0.00 0.62 0.62 99 1006.5
20260505074400 40 162 0.0 0.9 0.00 0.62 0.62 99 1006.3
20260505073857 41 180 0.0 1.7 0.00 0.62 0.62 99 1006.5
20260505073355 40 111 1.7 3.5 0.00 0.62 0.62 99 1006.4
20260505072852 40 171 0.9 0.9 0.00 0.62 0.62 99 1006.5
20260505072348 40 32 3.5 5.2 0.00 0.62 0.62 99 1006.2
20260505071844 41 161 0.0 0.9 0.00 0.62 0.62 99 1006.6
20260505071340 40 201 0.9 1.7 0.00 0.62 0.62 99 1006.7
20260505070839 40 9 2.6 6.1 0.00 0.62 0.62 99 1006.4
20260505070335 40 214 1.7 1.7 0.00 0.62 0.62 99 1006.6
20260505065830 40 19 3.5 5.2 0.00 0.62 0.62 99 1006.6
20260505065327 40 232 1.7 1.7 0.00 0.62 0.62 99 1006.6
20260505064824 40 63 0.9 2.6 0.00 0.62 0.62 99 1006.5
20260505064321 40 148 0.9 2.6 0.00 0.62 0.62 99 1006.7
20260505063819 40 218 1.7 3.5 0.00 0.62 0.62 99 1006.7
20260505063315 40 77 1.7 1.7 0.00 0.62 0.62 99 1006.6
20260505062811 40 13 4.3 5.2 0.00 0.62 0.62 99 1006.5
20260505062309 40 108 1.7 2.6 0.00 0.62 0.62 99 1006.5
20260505061806 40 193 0.0 6.1 0.00 0.62 0.62 99 1006.6
20260505061304 40 313 4.3 8.7 0.00 0.62 0.62 99 1006.4
20260505060801 41 331 4.3 6.1 0.00 0.62 0.62 99 1006.5
20260505060258 41 8 2.6 7.0 0.00 0.62 0.62 99 1006.5
20260505055754 41 258 3.5 7.8 0.00 0.62 0.62 99 1006.6
20260505055250 41 209 1.7 6.1 0.00 0.62 0.62 99 1006.8
20260505054748 41 253 5.2 7.0 0.00 0.62 0.62 99 1006.6
20260505054245 41 319 3.5 5.2 0.00 0.62 0.62 99 1006.7
20260505053743 42 182 1.7 3.5 0.00 0.62 0.62 99 1006.7
20260505053239 42 278 4.3 5.2 0.00 0.62 0.62 99 1006.7
20260505052736 42 155 1.7 2.6 0.00 0.62 0.62 99 1007.0
20260505052233 42 310 3.5 3.5 0.00 0.62 0.62 98 1006.7
20260505051730 42 332 2.6 3.5 0.00 0.62 0.62 98 1006.9
20260505051228 42 225 4.3 7.0 0.00 0.62 0.62 98 1006.9
20260505050726 42 249 2.6 2.6 0.00 0.62 0.62 98 1007.2
20260505050224 42 311 4.3 6.1 0.00 0.62 0.62 98 1007.1
20260505041654 43 210 2.6 2.6 0.00 0.62 0.62 97 1007.5
20260505041151 43 24 1.7 5.2 0.00 0.62 0.62 97 1007.4
20260505040648 43 181 1.7 5.2 0.00 0.62 0.62 96 1007.7
20260505040145 43 305 4.3 6.1 0.00 0.62 0.62 96 1007.7
20260505035642 43 184 0.9 5.2 0.00 0.62 0.62 96 1007.7
20260505035138 43 313 4.3 7.0 0.00 0.62 0.62 95 1007.8
20260505034635 44 190 1.7 5.2 0.00 0.62 0.62 95 1008.1
20260505034132 44 12 1.7 3.5 0.00 0.62 0.62 95 1008.3
20260505033628 44 200 2.6 5.2 0.00 0.62 0.62 94 1008.1
20260505033127 44 325 4.3 6.1 0.00 0.62 0.62 94 1008.2
20260505032624 44 55 1.7 2.6 0.00 0.62 0.62 95 1008.1
20260505032120 44 223 5.2 6.1 0.00 0.62 0.62 94 1008.3
20260505031618 44 297 3.5 6.1 0.00 0.62 0.62 94 1008.1
20260505031114 44 251 2.6 3.5 0.00 0.62 0.62 93 1008.5
20260505030611 44 204 2.6 2.6 0.00 0.62 0.62 93 1008.7
20260505030107 45 136 0.9 1.7 0.00 0.62 0.62 93 1008.8
20260505025602 44 234 1.7 3.5 0.00 0.62 0.62 94 1009.0
20260505025057 44 251 2.6 3.5 0.00 0.62 0.62 94 1008.7
20260505024553 44 12 3.5 3.5 0.00 0.62 0.62 94 1008.8
20260505024050 44 250 3.5 5.2 0.00 0.62 0.62 95 1008.9
20260505023547 44 299 2.6 6.1 0.00 0.62 0.62 95 1009.0
20260505023044 44 294 6.1 7.8 0.00 0.62 0.62 94 1009.1
20260505022542 44 203 1.7 2.6 0.00 0.62 0.62 94 1009.4
20260505022039 44 316 4.3 6.1 0.00 0.62 0.62 93 1009.5
20260505021536 45 336 3.5 3.5 0.00 0.62 0.62 93 1009.6
20260505021033 44 195 1.7 3.5 0.00 0.62 0.62 93 1009.6
20260505020532 44 259 2.6 3.5 0.00 0.62 0.62 94 1009.7
20260505020029 44 349 2.6 7.0 0.00 0.62 0.62 94 1009.6
20260505015526 44 273 1.7 5.2 0.00 0.62 0.62 94 1009.6
20260505015023 45 338 5.2 7.0 0.00 0.62 0.62 92 1009.8
20260505014520 45 21 2.6 6.1 0.00 0.62 0.62 93 1009.8
20260505014017 44 352 1.7 5.2 0.00 0.62 0.62 93 1009.9
20260505013514 44 290 3.5 7.0 0.00 0.62 0.62 93 1009.9
20260505013012 44 315 4.3 6.1 0.00 0.62 0.62 93 1010.0
20260505012510 44 340 4.3 7.0 0.00 0.62 0.62 92 1010.4
20260505012006 45 340 5.2 7.8 0.00 0.62 0.62 92 1010.3
20260505011502 45 321 3.5 6.1 0.00 0.62 0.62 92 1010.8
20260505010959 45 228 2.6 5.2 0.00 0.62 0.62 91 1010.9
20260505010455 45 321 5.2 7.0 0.00 0.62 0.62 91 1010.7
20260505005951 45 257 0.9 2.6 0.00 0.62 0.62 92 1011.0
20260505005448 44 214 3.5 5.2 0.00 0.62 0.62 93 1011.0
20260505004946 44 227 2.6 5.2 0.00 0.62 0.62 93 1011.3
20260505004442 44 203 2.6 6.1 0.00 0.62 0.62 93 1011.2
20260505003939 44 352 2.6 7.0 0.00 0.62 0.62 93 1011.3
20260505003436 44 298 2.6 7.0 0.00 0.62 0.62 94 1011.5
20260505002932 44 324 3.5 7.8 0.00 0.62 0.62 94 1011.8
20260505002428 44 212 2.6 3.5 0.00 0.62 0.62 94 1011.8
20260505001927 44 327 3.5 5.2 0.00 0.62 0.62 94 1011.6
20260505001424 44 16 3.5 5.2 0.00 0.62 0.62 94 1011.6
20260505000921 44 113 0.9 5.2 0.00 0.62 0.62 95 1011.7
20260505000420 44 330 3.5 7.0 0.00 0.62 0.62 95 1011.9
20260504235916 44 291 2.6 5.2 0.00 0.62 0.62 95 1012.1
20260504235413 44 336 3.5 5.2 0.00 0.62 0.62 95 1012.3
20260504234909 44 159 1.7 3.5 0.00 0.62 0.62 96 1012.5
20260504234407 43 321 3.5 5.2 0.00 0.62 0.62 96 1012.4
20260504233903 43 310 5.2 6.1 0.00 0.62 0.62 96 1012.8
20260504233359 43 301 2.6 5.2 0.00 0.62 0.62 95 1012.9
20260504232855 44 129 1.7 3.5 0.00 0.62 0.62 96 1013.0
20260504232353 43 330 6.1 7.0 0.00 0.62 0.62 96 1012.7
20260504231849 43 330 4.3 7.0 0.00 0.62 0.62 96 1013.0
20260504231346 43 11 3.5 5.2 0.00 0.62 0.62 97 1013.1
20260504230842 43 309 3.5 5.2 0.00 0.62 0.62 97 1013.1
20260504230340 42 21 3.5 7.0 0.00 0.62 0.62 98 1013.2
20260504225839 42 8 6.1 7.0 0.00 0.62 0.62 98 1013.4
20260504225335 43 206 1.7 3.5 0.00 0.62 0.62 98 1013.4
20260504224832 43 182 1.7 1.7 0.00 0.62 0.62 99 1013.4
20260504224329 42 215 1.7 5.2 0.00 0.62 0.62 99 1013.3
20260504223826 42 335 5.2 6.1 0.00 0.62 0.62 99 1013.5
20260504223321 42 317 4.3 6.1 0.00 0.62 0.62 99 1013.5
20260504222818 42 350 3.5 5.2 0.00 0.62 0.62 99 1013.7
20260504222315 42 44 0.9 5.2 0.00 0.62 0.62 99 1013.8
20260504221814 42 324 3.5 3.5 0.00 0.62 0.62 99 1013.7
20260504221310 43 309 2.6 3.5 0.00 0.62 0.62 99 1013.9
20260504220807 43 329 4.3 7.0 0.00 0.62 0.62 99 1013.9
20260504220303 43 132 1.7 1.7 0.00 0.62 0.62 99 1014.0
20260504215801 42 231 0.9 2.6 0.00 0.62 0.62 99 1014.1
20260504215257 42 227 0.9 3.5 0.00 0.62 0.62 99 1014.6
20260504214753 42 197 0.9 1.7 0.00 0.62 0.62 99 1014.7
20260504214250 43 212 1.7 1.7 0.00 0.62 0.62 99 1014.6
20260504213747 42 146 0.0 3.5 0.00 0.62 0.62 99 1014.5
20260504213243 42 186 0.0 0.9 0.00 0.62 0.62 99 1014.4
20260504212741 42 191 0.0 1.7 0.00 0.62 0.62 99 1014.4
20260504212237 42 231 1.7 1.7 0.00 0.62 0.62 99 1014.4
20260504211735 42 348 2.6 3.5 0.00 0.62 0.62 99 1014.3
20260504211231 42 234 1.7 2.6 0.00 0.62 0.62 99 1014.6
20260504210729 42 233 1.7 1.7 0.00 0.62 0.62 99 1014.6
20260504210226 42 193 0.0 1.7 0.00 0.62 0.62 99 1014.9
20260504205722 42 201 0.9 1.7 0.00 0.62 0.62 99 1014.9
20260504205220 42 181 0.9 0.9 0.00 0.62 0.62 99 1015.1
20260504204718 42 172 0.0 0.9 0.00 0.62 0.62 99 1015.0
20260504204216 42 19 2.6 5.2 0.00 0.62 0.62 99 1014.8
20260504203715 42 333 2.6 2.6 0.00 0.62 0.62 99 1015.1
20260504203212 42 322 2.6 5.2 0.00 0.62 0.62 99 1015.3
20260504202712 42 251 1.7 3.5 0.00 0.62 0.62 99 1015.2
20260504202209 42 240 1.7 3.5 0.00 0.62 0.62 99 1015.4
20260504201706 42 171 0.0 1.7 0.00 0.62 0.62 99 1015.7
20260504201204 42 291 2.6 2.6 0.00 0.62 0.62 99 1015.5
20260504200701 42 177 0.0 1.7 0.00 0.62 0.62 99 1016.0
20260504200157 42 335 1.7 3.5 0.00 0.62 0.62 99 1015.9
20260504195653 42 161 0.0 0.9 0.00 0.62 0.62 99 1016.2
20260504195149 41 190 3.5 5.2 0.00 0.62 0.62 99 1016.3
20260504194646 42 21 2.6 6.1 0.00 0.62 0.62 99 1016.3
20260504194142 42 291 1.7 2.6 0.00 0.62 0.62 99 1016.6
20260504193639 42 289 2.6 3.5 0.00 0.62 0.62 99 1016.9
20260504193137 42 210 1.7 2.6 0.00 0.62 0.62 99 1016.7
20260504192635 42 188 0.9 1.7 0.00 0.62 0.62 99 1016.8
20260504192133 42 307 4.3 6.1 0.00 0.62 0.62 99 1016.7
20260504191631 42 282 6.1 7.8 0.00 0.62 0.62 99 1016.6
20260504191127 42 85 0.9 3.5 0.00 0.62 0.62 99 1016.8
20260504190623 41 294 3.5 5.2 0.05 0.62 0.62 99 1016.7
20260504190120 41 226 3.5 5.2 0.00 0.61 0.61 99 1016.9
20260504185616 41 297 4.3 7.0 0.00 0.61 0.61 99 1016.7
20260504185113 41 190 1.7 5.2 0.00 0.61 0.61 99 1016.9
20260504184609 41 32 1.7 3.5 0.07 0.61 0.61 99 1016.8
20260504184104 41 223 2.6 3.5 0.07 0.61 0.61 99 1017.0
20260504183601 41 341 5.2 6.1 0.00 0.60 0.60 99 1017.0
20260504183059 41 201 1.7 2.6 0.00 0.60 0.60 99 1016.9
20260504182556 41 281 1.7 2.6 0.05 0.60 0.60 99 1016.8
20260504182053 41 188 0.9 3.5 0.05 0.60 0.60 99 1017.1
20260504181550 41 330 2.6 3.5 0.00 0.59 0.59 99 1017.1
20260504181048 41 345 1.7 3.5 0.00 0.59 0.59 99 1017.1
20260504180547 41 261 2.6 3.5 0.07 0.59 0.59 99 1017.3
20260504180046 40 285 2.6 3.5 0.07 0.59 0.59 99 1017.2
20260504175542 40 40 1.7 3.5 0.05 0.58 0.58 99 1017.4
20260504175039 40 345 2.6 5.2 0.05 0.58 0.58 99 1017.4
20260504174537 40 17 2.6 5.2 0.07 0.57 0.57 99 1017.3
20260504174034 40 311 3.5 3.5 0.00 0.56 0.56 99 1017.4
20260504173531 41 313 1.7 3.5 0.07 0.56 0.56 99 1017.4
20260504173028 41 201 0.9 3.5 0.00 0.55 0.55 99 1017.6
20260504172524 40 242 1.7 2.6 0.05 0.55 0.55 99 1017.5
20260504172021 40 230 1.7 2.6 0.05 0.55 0.55 99 1017.7
20260504171518 40 220 1.7 2.6 0.07 0.54 0.54 99 1017.8
20260504171015 40 191 0.9 1.7 0.07 0.54 0.54 99 1017.9
20260504170510 40 190 0.0 1.7 0.05 0.53 0.53 99 1017.9
20260504160431 40 288 2.6 3.5 0.07 0.46 0.46 99 1018.4
20260504150854 40 208 1.7 1.7 0.07 0.41 0.41 99 1018.8
20260504150351 40 189 0.0 0.9 0.05 0.40 0.40 99 1018.9
20260504141321 40 195 0.9 1.7 0.05 0.36 0.36 99 1019.1
20260504140817 40 14 1.7 2.6 0.07 0.35 0.35 99 1019.1
20260504140313 40 53 1.7 5.2 0.07 0.35 0.35 99 1019.0
20260504130742 40 303 1.7 1.7 0.05 0.29 0.29 99 1019.5
20260504130238 40 110 1.7 2.6 0.00 0.28 0.28 99 1019.5
20260504120202 40 147 0.0 1.7 0.05 0.23 0.23 99 1019.8
20260504110629 40 206 0.9 0.9 0.14 0.18 0.18 99 1020.2
20260504110125 40 201 0.0 0.9 0.07 0.17 0.17 99 1020.2